Location: Unspecified
(0.0000°N, 0.0000°E)
Time: 06:00:35
(UTC+00:00)

Vanguard 2 - Pass Details

Date: 20 September 2019
Orbit: 554 x 2937 km, 32.9° (Epoch: 14 October)

Event Time Altitude Azimuth Distance (km) Brightness Sun altitude
Rises 20:21:41 0° 217° (SW) 5,704 12.4 -37.1°
Reaches altitude 10° 20:25:47 10° 208° (SSW) 5,005 11.9 -38.1°
Enters shadow 20:37:28 33° 158° (SSE) 4,013 10.8 -41.0°
Maximum altitude 20:39:08 33° 148° (SSE) 4,033 - -41.4°
Drops below altitude 10° 20:54:12 10° 91° (E) 5,694 - -45.2°
Sets 20:59:11 0° 82° (E) 6,564 - -46.4°
